Regional Weather Roundup
Issued by NWS

Home | Current Version | Previous Version | Text Only | Print | Product List | Glossary Off
Versions: 1 2 3 4 5 6 7 8 9 10 11 12 13 14 15 16 17 18 19 20 21 22 23 24 25 26 27 28 29 30 31 32 33 34 35 36 37 38 39 40 41 42 43 44 45 46 47 48 49 50

444
ASUS45 KBOI 270010
RWRID

IDAHO REGIONAL WEATHER ROUNDUP
NATIONAL WEATHER SERVICE BOISE ID
600 PM MDT THU MAY 26 2016

NOTE: "FAIR" INDICATES FEW OR NO CLOUDS BELOW 12000 FEET
WITH NO SIGNIFICANT WEATHER AND/OR OBSTRUCTIONS TO VISIBILITY

IDZ012-014-270100-
SOUTHWEST IDAHO


CITY           SKY/WX    TMP DP  RH WIND       PRES   REMARKS
BOISE          MOSUNNY   74  34  23 W8        29.92F
CALDWELL       MOSUNNY   75  37  25 CALM      29.91F
MOUNTAIN HOME  MOSUNNY   76  46  33 W14G21    29.92F
$$

IDZ016-017-270100-
SOUTHCENTRAL IDAHO


CITY           SKY/WX    TMP DP  RH WIND       PRES   REMARKS
BURLEY         MOSUNNY   68  41  37 SW10      29.93F
JEROME         PTSUNNY   71  32  23 W15       29.94F
TWIN FALLS     MOSUNNY   70  34  26 W20       29.95F
$$

IDZ019>023-270100-
SOUTHEAST IDAHO


CITY           SKY/WX    TMP DP  RH WIND       PRES   REMARKS
IDAHO FALLS    MOSUNNY   67  36  31 SW6       29.93F
POCATELLO      MOSUNNY   69  36  29 W9        29.94F
REXBURG        CLOUDY    66  31  27 S6        29.93F
$$

IDZ006-010-011-018-031-032-270100-
CENTRAL IDAHO MOUNTAINS


CITY           SKY/WX    TMP DP  RH WIND       PRES   REMARKS
MCCALL         CLOUDY    61  33  35 W13       29.97F
HAILEY         MOSUNNY   59  45  58 NW10G20     N/A
STANLEY          N/A     62  29  28 VRB3      30.00F
SALMON         CLOUDY    68  37  32 NW7       29.87F
CHALLIS        MOSUNNY   65  33  30 N6        29.91F
$$

IDZ002-004-006-007-026-270100-
NORTHERN IDAHO


CITY           SKY/WX    TMP DP  RH WIND       PRES   REMARKS
LEWISTON       CLOUDY    69  43  38 NW14      29.95F
LOWELL           N/A     70  46  42 S8        29.90F
COEUR D`ALENE  CLOUDY    63  46  55 S10       29.93F
MULLAN PASS    CLOUDY    45  41  86 VRB5      30.02F
$$




USA.gov is the U.S. government's official web portal to all federal, state and local government web resources and services.